Location: Tel Aviv
(32.0670°N, 34.7670°E)
Time: 12:51:52
(UTC+03:00)

Explorer 11/Cluster Stage 4 - Pass Details

Date: 12 September 2024
Orbit: 464 x 1208 km, 28.8° (Epoch: 05 October)

Event Time Altitude Azimuth Distance (km) Brightness Sun altitude
Rises 09:23:22 0° 255° (WSW) 3,913 9.8 36.7°
Reaches altitude 10° 09:26:04 10° 252° (WSW) 3,025 9.3 37.2°
Maximum altitude 09:33:42 66° 172° (S) 1,297 8.6 38.7°
Drops below altitude 10° 09:41:35 10° 92° (E) 3,113 10.7 40.2°
Sets 09:44:24 0° 90° (E) 4,033 10.9 40.8°
